TimePDT,TemperatureF,Dew PointF,Humidity,Sea Level PressureIn,VisibilityMPH,Wind Direction,Wind SpeedMPH,Gust SpeedMPH,PrecipitationIn,Events,Conditions,WindDirDegrees,DateUTC
12:53 AM,55.9,19.9,25,30.26,10.0,ENE,5.8,-,N/A,,Overcast,60,2012-10-03 07:53:00
1:53 AM,53.1,19.9,27,30.29,10.0,ENE,5.8,-,N/A,,Overcast,70,2012-10-03 08:53:00
2:09 AM,51.8,21.2,30,30.30,10.0,East,5.8,-,N/A,,Overcast,80,2012-10-03 09:09:00
2:53 AM,48.9,19.9,32,30.31,10.0,East,4.6,-,N/A,,Overcast,90,2012-10-03 09:53:00
3:02 AM,48.2,21.2,34,30.32,10.0,ESE,4.6,-,N/A,,Overcast,120,2012-10-03 10:02:00
3:53 AM,48.0,21.0,34,30.33,10.0,East,4.6,-,N/A,,Overcast,80,2012-10-03 10:53:00
4:53 AM,45.0,21.9,40,30.36,10.0,Calm,Calm,-,N/A,,Overcast,0,2012-10-03 11:53:00
5:53 AM,43.0,21.0,42,30.38,10.0,SSE,3.5,-,N/A,,Partly Cloudy,160,2012-10-03 12:53:00
6:53 AM,41.0,21.0,45,30.40,10.0,Calm,Calm,-,N/A,,Clear,0,2012-10-03 13:53:00
7:53 AM,42.1,23.0,47,30.42,10.0,Calm,Calm,-,N/A,,Clear,0,2012-10-03 14:53:00
8:53 AM,46.9,24.1,41,30.43,10.0,Calm,Calm,-,N/A,,Clear,0,2012-10-03 15:53:00
9:53 AM,52.0,23.0,32,30.43,9.0,Calm,Calm,-,N/A,,Clear,0,2012-10-03 16:53:00
10:53 AM,55.9,23.0,28,30.42,8.0,WNW,3.5,-,N/A,,Clear,300,2012-10-03 17:53:00
11:53 AM,61.0,25.0,25,30.39,10.0,NNW,4.6,-,N/A,,Clear,330,2012-10-03 18:53:00
12:53 PM,64.9,26.1,23,30.37,10.0,East,16.1,21.9,N/A,,Clear,90,2012-10-03 19:53:00
2:53 PM,68.0,26.1,21,30.31,10.0,East,11.5,23.0,N/A,,Clear,100,2012-10-03 21:53:00
3:53 PM,68.0,27.0,21,30.29,10.0,ESE,15.0,19.6,N/A,,Clear,120,2012-10-03 22:53:00
4:53 PM,68.0,27.0,21,30.28,10.0,East,15.0,20.7,N/A,,Clear,100,2012-10-03 23:53:00
6:53 PM,59.0,28.9,32,30.28,10.0,SE,8.1,-,N/A,,Clear,130,2012-10-04 01:53:00
7:53 PM,55.0,30.0,38,30.29,10.0,ESE,4.6,-,N/A,,Clear,120,2012-10-04 02:53:00
8:53 PM,50.0,28.0,43,30.30,10.0,ENE,3.5,-,N/A,,Clear,60,2012-10-04 03:53:00
9:53 PM,46.9,30.0,52,30.30,10.0,ESE,3.5,-,N/A,,Clear,120,2012-10-04 04:53:00
10:53 PM,46.9,30.0,52,30.29,10.0,ESE,5.8,-,N/A,,Clear,110,2012-10-04 05:53:00
11:53 PM,45.0,28.9,53,30.29,10.0,ESE,8.1,-,N/A,,Clear,120,2012-10-04 06:53:00